When you browse on this site, cookies collect data to enhance your experience and personalize the content and advertising you see.
Visit our Privacy Policy to learn more. By continuing to use the site, you agree to this use of cookies and data.
  • In Hungary
  • List of Countries
  • For 7 days
  • Water Temperature
  • Weather Map
  • News
  • Weather Widgets
  • user-avatar
    Login

    Hourly Weather Tokma

    Today, 20 August, Tuesday

    Time Temperature Precipitation Wind Pressure Humidity
    00:00 +10°C° 0 mm 0 mps 730 mmHg 95%
    01:00 +10°C° 0 mm 0 mps 730 mmHg 95%
    02:00 +10°C° 0 mm 0 mps 730 mmHg 95%
    03:00 +9°C° 0 mm 0 mps 730 mmHg 95%
    04:00 +9°C° 0 mm 0 mps 730 mmHg 95%
    05:00 +10°C° 0 mm 0 mps 730 mmHg 93%
    06:00 +11°C° 0 mm 0 mps 730 mmHg 91%
    07:00 +14°C° 0 mm 1 mps 730 mmHg 89%
    08:00 +16°C° 0.1 mm 1 mps 730 mmHg 81%
    09:00 +18°C° 0.1 mm 1 mps 730 mmHg 72%
    10:00 +19°C° 0.1 mm 2 mps 731 mmHg 64%
    11:00 +20°C° 0.2 mm 2 mps 730 mmHg 60%
    12:00 +21°C° 0.2 mm 2 mps 730 mmHg 56%
    13:00 +21°C° 0.2 mm 2 mps 730 mmHg 53%
    14:00 +23°C° 0.1 mm 2 mps 730 mmHg 50%
    15:00 +23°C° 0.1 mm 2 mps 729 mmHg 48%
    16:00 +23°C° 0.1 mm 2 mps 729 mmHg 45%
    17:00 +21°C° 0 mm 2 mps 729 mmHg 52%
    18:00 +21°C° 0 mm 1 mps 729 mmHg 58%
    19:00 +19°C° 0 mm 1 mps 729 mmHg 65%
    20:00 +18°C° 0 mm 1 mps 729 mmHg 68%
    21:00 +15°C° 0 mm 1 mps 729 mmHg 72%
    22:00 +14°C° 0 mm 1 mps 729 mmHg 76%
    23:00 +14°C° 0.1 mm 1 mps 729 mmHg 78%

    Tomorrow, 21 August, Wednesday

    Time Temperature Precipitation Wind Pressure Humidity
    00:00 +13°C° 0.1 mm 1 mps 729 mmHg 81%
    01:00 +12°C° 0.1 mm 1 mps 729 mmHg 84%
    02:00 +12°C° 0 mm 1 mps 729 mmHg 86%
    03:00 +11°C° 0 mm 1 mps 729 mmHg 88%
    04:00 +11°C° 0 mm 1 mps 729 mmHg 90%
    05:00 +11°C° 0 mm 0 mps 729 mmHg 87%
    06:00 +12°C° 0 mm 0 mps 729 mmHg 84%
    07:00 +13°C° 0 mm 0 mps 729 mmHg 81%
    08:00 +16°C° 0 mm 1 mps 729 mmHg 72%
    09:00 +19°C° 0 mm 1 mps 729 mmHg 64%
    10:00 +20°C° 0 mm 1 mps 729 mmHg 55%
    11:00 +22°C° 0 mm 1 mps 729 mmHg 49%
    12:00 +23°C° 0 mm 1 mps 729 mmHg 44%
    13:00 +24°C° 0 mm 1 mps 729 mmHg 39%
    14:00 +24°C° 0 mm 1 mps 729 mmHg 41%
    15:00 +23°C° 0 mm 1 mps 728 mmHg 43%
    16:00 +22°C° 0 mm 1 mps 728 mmHg 45%
    17:00 +21°C° 0 mm 1 mps 728 mmHg 50%
    18:00 +19°C° 0 mm 1 mps 728 mmHg 56%
    19:00 +18°C° 0 mm 1 mps 728 mmHg 62%
    20:00 +16°C° 0 mm 1 mps 728 mmHg 66%
    21:00 +13°C° 0 mm 0 mps 728 mmHg 71%
    22:00 +12°C° 0 mm 0 mps 728 mmHg 76%
    23:00 +12°C° 0 mm 0 mps 728 mmHg 78%

    Day after tomorrow, 22 August, Thursday

    Time Temperature Precipitation Wind Pressure Humidity
    00:00 +11°C° 0 mm 0 mps 728 mmHg 80%
    01:00 +11°C° 0 mm 0 mps 728 mmHg 82%
    02:00 +11°C° 0 mm 0 mps 728 mmHg 84%
    03:00 +10°C° 0 mm 0 mps 728 mmHg 86%
    04:00 +10°C° 0 mm 0 mps 728 mmHg 88%
    05:00 +11°C° 0 mm 0 mps 728 mmHg 85%
    06:00 +12°C° 0 mm 0 mps 728 mmHg 81%
    07:00 +13°C° 0 mm 0 mps 728 mmHg 78%
    08:00 +15°C° 0 mm 0 mps 728 mmHg 71%
    09:00 +16°C° 0 mm 0 mps 728 mmHg 65%
    10:00 +18°C° 0 mm 0 mps 728 mmHg 58%
    11:00 +19°C° 0.1 mm 0 mps 728 mmHg 56%
    12:00 +22°C° 0.1 mm 1 mps 728 mmHg 53%
    13:00 +22°C° 0.1 mm 1 mps 728 mmHg 51%
    14:00 +22°C° 0.1 mm 1 mps 728 mmHg 53%
    15:00 +21°C° 0.1 mm 1 mps 727 mmHg 55%
    16:00 +21°C° 0.1 mm 1 mps 727 mmHg 57%
    17:00 +20°C° 0 mm 1 mps 727 mmHg 63%
    18:00 +18°C° 0 mm 1 mps 727 mmHg 68%
    19:00 +16°C° 0 mm 1 mps 727 mmHg 74%
    20:00 +15°C° 0 mm 1 mps 727 mmHg 77%
    21:00 +14°C° 0 mm 1 mps 727 mmHg 80%
    22:00 +12°C° 0 mm 0 mps 727 mmHg 83%
    23:00 +11°C° 0 mm 0 mps 727 mmHg 85%

    23 August, Friday

    Time Temperature Precipitation Wind Pressure Humidity
    00:00 +11°C° 0 mm 0 mps 727 mmHg 87%
    01:00 +10°C° 0 mm 0 mps 727 mmHg 89%
    02:00 +10°C° 0 mm 0 mps 727 mmHg 91%
    03:00 +10°C° 0 mm 0 mps 727 mmHg 92%
    04:00 +10°C° 0 mm 0 mps 727 mmHg 93%
    05:00 +12°C° 0 mm 1 mps 727 mmHg 89%
    06:00 +13°C° 0 mm 1 mps 727 mmHg 84%
    07:00 +14°C° 0 mm 1 mps 727 mmHg 80%
    08:00 +16°C° 0 mm 1 mps 727 mmHg 72%
    09:00 +18°C° 0 mm 2 mps 727 mmHg 64%
    10:00 +20°C° 0 mm 2 mps 727 mmHg 56%
    11:00 +21°C° 0 mm 2 mps 727 mmHg 53%
    12:00 +23°C° 0 mm 2 mps 726 mmHg 49%
    13:00 +24°C° 0 mm 2 mps 726 mmHg 45%
    14:00 +24°C° 0 mm 2 mps 726 mmHg 45%
    15:00 +25°C° 0 mm 2 mps 726 mmHg 45%
    16:00 +25°C° 0 mm 3 mps 726 mmHg 44%
    17:00 +23°C° 0 mm 2 mps 726 mmHg 52%
    18:00 +20°C° 0 mm 2 mps 725 mmHg 59%
    19:00 +19°C° 0 mm 2 mps 725 mmHg 66%
    20:00 +17°C° 0 mm 2 mps 725 mmHg 71%
    21:00 +16°C° 0 mm 2 mps 725 mmHg 75%
    22:00 +14°C° 0 mm 2 mps 725 mmHg 79%
    23:00 +14°C° 0 mm 2 mps 725 mmHg 82%

    24 August, Saturday

    Time Temperature Precipitation Wind Pressure Humidity
    00:00 +13°C° 0 mm 2 mps 725 mmHg 85%
    01:00 +12°C° 0 mm 2 mps 725 mmHg 88%
    02:00 +12°C° 0 mm 2 mps 724 mmHg 90%
    03:00 +10°C° 0 mm 2 mps 724 mmHg 91%
    04:00 +10°C° 0 mm 2 mps 724 mmHg 92%
    05:00 +12°C° 0 mm 2 mps 724 mmHg 87%
    06:00 +13°C° 0 mm 2 mps 724 mmHg 82%
    07:00 +14°C° 0 mm 2 mps 724 mmHg 76%
    08:00 +16°C° 0 mm 2 mps 724 mmHg 70%
    09:00 +19°C° 0 mm 1 mps 724 mmHg 64%
    10:00 +21°C° 0 mm 1 mps 725 mmHg 57%
    11:00 +20°C° 0.7 mm 1 mps 725 mmHg 68%
    12:00 +18°C° 0.7 mm 1 mps 725 mmHg 79%
    13:00 +16°C° 0.7 mm 1 mps 724 mmHg 90%
    14:00 +16°C° 0.5 mm 2 mps 725 mmHg 91%
    15:00 +15°C° 0.5 mm 2 mps 725 mmHg 92%
    16:00 +15°C° 0.5 mm 2 mps 725 mmHg 92%
    17:00 +15°C° 0 mm 2 mps 725 mmHg 93%
    18:00 +15°C° 0 mm 2 mps 725 mmHg 93%
    19:00 +14°C° 0 mm 2 mps 725 mmHg 94%
    20:00 +14°C° 0 mm 2 mps 725 mmHg 95%
    21:00 +13°C° 0 mm 2 mps 725 mmHg 97%
    22:00 +12°C° 0 mm 2 mps 725 mmHg 98%
    23:00 +12°C° 0 mm 2 mps 725 mmHg 98%

    25 August, Sunday

    Time Temperature Precipitation Wind Pressure Humidity
    00:00 +12°C° 0 mm 2 mps 725 mmHg 97%
    01:00 +10°C° 0 mm 2 mps 725 mmHg 97%
    02:00 +10°C° 0 mm 2 mps 725 mmHg 97%
    03:00 +10°C° 0 mm 2 mps 726 mmHg 97%
    04:00 +11°C° 0 mm 1 mps 726 mmHg 97%
    05:00 +11°C° 0 mm 1 mps 726 mmHg 96%
    06:00 +12°C° 0 mm 2 mps 726 mmHg 94%
    07:00 +13°C° 0 mm 2 mps 726 mmHg 93%
    08:00 +15°C° 0 mm 2 mps 726 mmHg 85%
    09:00 +16°C° 0 mm 2 mps 726 mmHg 77%
    10:00 +18°C° 0 mm 2 mps 727 mmHg 69%
    11:00 +19°C° 0 mm 2 mps 727 mmHg 62%
    12:00 +20°C° 0 mm 3 mps 727 mmHg 56%
    13:00 +21°C° 0 mm 3 mps 726 mmHg 50%
    14:00 +21°C° 0.1 mm 3 mps 726 mmHg 50%
    15:00 +21°C° 0.1 mm 2 mps 726 mmHg 51%
    16:00 +21°C° 0.1 mm 2 mps 726 mmHg 52%
    17:00 +20°C° 0.1 mm 2 mps 726 mmHg 61%
    18:00 +19°C° 0.1 mm 1 mps 726 mmHg 71%
    19:00 +16°C° 0.1 mm 1 mps 726 mmHg 80%
    20:00 +15°C° 0 mm 1 mps 726 mmHg 85%
    21:00 +14°C° 0 mm 1 mps 727 mmHg 89%
    22:00 +13°C° 0 mm 1 mps 727 mmHg 93%
    23:00 +12°C° 0 mm 1 mps 727 mmHg 94%
    Show more